Location: ???????
(60.4260°N, 46.9069°E)
Time: 07:46:35
(UTC+00:00)

Cosmos 1515 - Pass Details

Date: 30 March 2020
Orbit: 506 x 516 km, 82.5° (Epoch: 25 May)

Event Time Altitude Azimuth Distance (km) Brightness Sun altitude
Rises 01:14:48 0° 180° (S) 2,609 7.0 -8.8°
Reaches altitude 10° 01:16:56 10° 176° (S) 1,730 6.2 -8.6°
Maximum altitude 01:20:39 55° 98° (E) 621 4.5 -8.1°
Drops below altitude 10° 01:24:24 10° 20° (NNE) 1,750 7.0 -7.7°
Sets 01:26:34 0° 17° (NNE) 2,644 7.9 -7.5°
